BKB7 CYQL-CYKA

Flight info

Callsign BKB7
Flight time 1h 27m
Altitude 24000
Route YNY
Aircraft AT46/M-SDFGIRY/S

Departure

Time 2026-04-28 22:53
Airport Lethbridge County Airport (CYQL)

Arrival

Time 2026-04-29 00:21
Airport Kamloops John Moose Fulton Field Regional Airport (CYKA)
Time Latitude Longitude Altitude Speed Heading
2026-04-28 22:43 49.63382 -112.78909 3017 ft 0 kts 96°
2026-04-28 22:46 49.63382 -112.78910 3017 ft 1 kts 96°
2026-04-28 22:47 49.63385 -112.78948 3017 ft 4 kts 96°
2026-04-28 22:47 49.63388 -112.78988 3017 ft 2 kts 97°
2026-04-28 22:47 49.63388 -112.78998 3017 ft 0 kts 97°
2026-04-28 22:49 49.63388 -112.78995 3017 ft 2 kts 97°
2026-04-28 22:49 49.63384 -112.78975 3017 ft 5 kts 123°
2026-04-28 22:49 49.63335 -112.78932 3017 ft 10 kts 150°
2026-04-28 22:49 49.63249 -112.78915 3017 ft 14 kts 193°
2026-04-28 22:50 49.63168 -112.78946 3020 ft 9 kts 194°
2026-04-28 22:50 49.63096 -112.78973 3018 ft 12 kts 194°
2026-04-28 22:50 49.63014 -112.79005 3021 ft 13 kts 194°
2026-04-28 22:50 49.62928 -112.78963 3017 ft 14 kts 141°
2026-04-28 22:51 49.62843 -112.78857 3018 ft 17 kts 141°
2026-04-28 22:51 49.62742 -112.78741 3022 ft 19 kts 137°
2026-04-28 22:51 49.62651 -112.78605 3018 ft 17 kts 136°
2026-04-28 22:51 49.62603 -112.78482 3020 ft 14 kts 132°
2026-04-28 22:52 49.62571 -112.78497 3022 ft 3 kts 279°
2026-04-28 22:52 49.62579 -112.78512 3021 ft 9 kts 313°
2026-04-28 22:52 49.62755 -112.78746 3021 ft 65 kts 320°
2026-04-28 22:52 49.63247 -112.79382 3020 ft 120 kts 320°
2026-04-28 22:53 49.63953 -112.80301 3280 ft 141 kts 320°
2026-04-28 22:53 49.64740 -112.81486 3513 ft 173 kts 310°
2026-04-28 22:53 49.65284 -112.83236 3934 ft 191 kts 283°
2026-04-28 22:53 49.65244 -112.85308 4415 ft 196 kts 269°
2026-04-28 22:54 49.65179 -112.87414 5007 ft 196 kts 272°
2026-04-28 22:54 49.65162 -112.89485 5573 ft 191 kts 276°
2026-04-28 22:54 49.65256 -112.91517 6084 ft 189 kts 279°
2026-04-28 22:54 49.65467 -112.93512 6616 ft 188 kts 284°
2026-04-28 22:55 49.65778 -112.95458 7062 ft 187 kts 288°
2026-04-28 22:55 49.66157 -112.97377 7536 ft 187 kts 290°
2026-04-28 22:55 49.66557 -112.99290 7993 ft 187 kts 290°
2026-04-28 22:55 49.66958 -113.01200 8455 ft 187 kts 289°
2026-04-28 22:56 49.67357 -113.03121 8921 ft 187 kts 289°
2026-04-28 22:56 49.67735 -113.05010 9376 ft 186 kts 288°
2026-04-28 22:56 49.68107 -113.06910 9879 ft 184 kts 288°
2026-04-28 22:56 49.68476 -113.08803 10328 ft 183 kts 288°
2026-04-28 22:57 49.68839 -113.10675 10776 ft 181 kts 288°
2026-04-28 22:57 49.69201 -113.12531 11234 ft 179 kts 288°
2026-04-28 22:57 49.69556 -113.14361 11683 ft 177 kts 288°
2026-04-28 22:57 49.69897 -113.16167 12150 ft 174 kts 288°
2026-04-28 22:58 49.70221 -113.17943 12625 ft 170 kts 288°
2026-04-28 22:58 49.70539 -113.19690 13118 ft 167 kts 289°
2026-04-28 22:58 49.70856 -113.21386 13589 ft 162 kts 289°
2026-04-28 22:58 49.71177 -113.23059 13944 ft 165 kts 289°
2026-04-28 22:59 49.71516 -113.24799 14187 ft 173 kts 289°
2026-04-28 22:59 49.71879 -113.26611 14439 ft 179 kts 290°
2026-04-28 22:59 49.72258 -113.28454 14689 ft 185 kts 290°
2026-04-28 22:59 49.72642 -113.30384 14939 ft 190 kts 289°
2026-04-28 23:00 49.73026 -113.32366 15194 ft 194 kts 289°
2026-04-28 23:00 49.73420 -113.34412 15361 ft 202 kts 289°
2026-04-28 23:00 49.73825 -113.36526 15519 ft 208 kts 289°
2026-04-28 23:00 49.74243 -113.38707 15678 ft 214 kts 289°
2026-04-28 23:01 49.74667 -113.40930 15833 ft 218 kts 289°
2026-04-28 23:01 49.75100 -113.43205 15989 ft 222 kts 289°
2026-04-28 23:01 49.75541 -113.45523 16144 ft 226 kts 289°
2026-04-28 23:01 49.75989 -113.47869 16297 ft 229 kts 289°
2026-04-28 23:02 49.76441 -113.50243 16459 ft 231 kts 289°
2026-04-28 23:02 49.76895 -113.52637 16607 ft 233 kts 289°
2026-04-28 23:02 49.77352 -113.55048 16768 ft 234 kts 289°
2026-04-28 23:02 49.77810 -113.57462 16926 ft 234 kts 289°
2026-04-28 23:03 49.78263 -113.59852 17082 ft 235 kts 289°
2026-04-28 23:03 49.78721 -113.62279 17243 ft 235 kts 289°
2026-04-28 23:03 49.79180 -113.64708 17402 ft 235 kts 289°
2026-04-28 23:03 49.79635 -113.67132 17561 ft 235 kts 289°
2026-04-28 23:04 49.80091 -113.69556 17720 ft 234 kts 289°
2026-04-28 23:04 49.81002 -113.74394 18031 ft 235 kts 289°
2026-04-28 23:04 49.81434 -113.76823 18201 ft 234 kts 287°
2026-04-28 23:05 49.81856 -113.79245 18355 ft 232 kts 287°
2026-04-28 23:05 49.82302 -113.81637 18507 ft 230 kts 288°
2026-04-28 23:05 49.82757 -113.84008 18650 ft 229 kts 288°
2026-04-28 23:05 49.83212 -113.86372 18796 ft 228 kts 288°
2026-04-28 23:06 49.83659 -113.88726 18942 ft 227 kts 288°
2026-04-28 23:06 49.84096 -113.91067 19074 ft 226 kts 288°
2026-04-28 23:06 49.84528 -113.93396 19225 ft 224 kts 288°
2026-04-28 23:06 49.84949 -113.95679 19360 ft 222 kts 288°
2026-04-28 23:07 49.85377 -113.97973 19516 ft 221 kts 289°
2026-04-28 23:07 49.85800 -114.00246 19660 ft 219 kts 288°
2026-04-28 23:07 49.86222 -114.02514 19808 ft 218 kts 288°
2026-04-28 23:07 49.86639 -114.04771 19966 ft 217 kts 289°
2026-04-28 23:08 49.87053 -114.07013 20102 ft 216 kts 288°
2026-04-28 23:08 49.87464 -114.09254 20272 ft 216 kts 289°
2026-04-28 23:08 49.87879 -114.11500 20422 ft 216 kts 289°
2026-04-28 23:08 49.88292 -114.13743 20575 ft 217 kts 289°
2026-04-28 23:09 49.88704 -114.15987 20727 ft 216 kts 289°
2026-04-28 23:09 49.89116 -114.18232 20881 ft 216 kts 289°
2026-04-28 23:09 49.89527 -114.20474 21028 ft 215 kts 289°
2026-04-28 23:09 49.89934 -114.22700 21196 ft 215 kts 289°
2026-04-28 23:10 49.90341 -114.24924 21349 ft 214 kts 289°
2026-04-28 23:10 49.90746 -114.27142 21509 ft 213 kts 289°
2026-04-28 23:10 49.91149 -114.29354 21662 ft 212 kts 289°
2026-04-28 23:10 49.91543 -114.31525 21826 ft 211 kts 289°
2026-04-28 23:11 49.91941 -114.33708 21974 ft 210 kts 289°
2026-04-28 23:11 49.92337 -114.35888 22133 ft 209 kts 289°
2026-04-28 23:11 49.92729 -114.38047 22299 ft 208 kts 289°
2026-04-28 23:11 49.93119 -114.40205 22454 ft 207 kts 289°
2026-04-28 23:12 49.93509 -114.42359 22620 ft 207 kts 289°
2026-04-28 23:12 49.93899 -114.44512 22781 ft 207 kts 289°
2026-04-28 23:12 49.94288 -114.46663 22968 ft 207 kts 290°
2026-04-28 23:12 49.94676 -114.48816 23123 ft 207 kts 289°
2026-04-28 23:13 49.95062 -114.50964 23299 ft 206 kts 289°
2026-04-28 23:13 49.95448 -114.53102 23441 ft 205 kts 290°
2026-04-28 23:13 49.95836 -114.55226 23595 ft 204 kts 290°
2026-04-28 23:13 49.96220 -114.57334 23763 ft 202 kts 290°
2026-04-28 23:14 49.96603 -114.59428 23895 ft 201 kts 290°
2026-04-28 23:14 49.96984 -114.61509 24009 ft 200 kts 290°
2026-04-28 23:14 49.97362 -114.63603 24089 ft 203 kts 290°
2026-04-28 23:14 49.97747 -114.65757 24111 ft 210 kts 290°
2026-04-28 23:15 49.98151 -114.67982 24136 ft 217 kts 289°
2026-04-28 23:15 49.98564 -114.70271 24171 ft 224 kts 290°
2026-04-28 23:15 49.98986 -114.72632 24144 ft 229 kts 289°
2026-04-28 23:15 49.99408 -114.75042 24134 ft 232 kts 289°
2026-04-28 23:16 49.99832 -114.77480 24155 ft 235 kts 289°
2026-04-28 23:16 50.00251 -114.79926 24159 ft 240 kts 288°
2026-04-28 23:16 50.00684 -114.82448 24140 ft 243 kts 288°
2026-04-28 23:16 50.01129 -114.84992 24132 ft 245 kts 289°
2026-04-28 23:17 50.01578 -114.87554 24133 ft 246 kts 289°
2026-04-28 23:17 50.02032 -114.90123 24129 ft 247 kts 289°
2026-04-28 23:17 50.02489 -114.92701 24113 ft 247 kts 288°
2026-04-28 23:17 50.02948 -114.95285 24105 ft 247 kts 288°
2026-04-28 23:18 50.03402 -114.97860 24110 ft 247 kts 288°
2026-04-28 23:18 50.03854 -115.00433 24123 ft 247 kts 288°
2026-04-28 23:18 50.04305 -115.03022 24126 ft 248 kts 288°
2026-04-28 23:18 50.04761 -115.05621 24123 ft 249 kts 288°
2026-04-28 23:19 50.05214 -115.08219 24125 ft 250 kts 288°
2026-04-28 23:19 50.05671 -115.10830 24111 ft 251 kts 288°
2026-04-28 23:19 50.06126 -115.13450 24129 ft 250 kts 287°
2026-04-28 23:19 50.06579 -115.16066 24121 ft 251 kts 287°
2026-04-28 23:20 50.07018 -115.18698 24140 ft 253 kts 284°
2026-04-28 23:20 50.06841 -115.21352 24448 ft 240 kts 258°
2026-04-28 23:20 50.06659 -115.23865 24267 ft 233 kts 290°
2026-04-28 23:20 50.07482 -115.26031 24185 ft 236 kts 305°
2026-04-28 23:21 50.08364 -115.28195 24158 ft 238 kts 299°
2026-04-28 23:21 50.09075 -115.30541 24121 ft 241 kts 292°
2026-04-28 23:21 50.09586 -115.32987 24096 ft 244 kts 287°
2026-04-28 23:21 50.09791 -115.35528 24639 ft 220 kts 275°
2026-04-28 23:22 50.09895 -115.37839 24739 ft 217 kts 279°
2026-04-28 23:22 50.10119 -115.39420 24259 ft 239 kts 288°
2026-04-28 23:22 50.10557 -115.42790 24454 ft 232 kts 278°
2026-04-28 23:22 50.10675 -115.45424 23891 ft 259 kts 273°
2026-04-28 23:23 50.10795 -115.48196 23796 ft 256 kts 277°
2026-04-28 23:23 50.10996 -115.50997 23425 ft 266 kts 280°
2026-04-28 23:23 50.11246 -115.53992 22637 ft 288 kts 277°
2026-04-28 23:23 50.11402 -115.57117 22436 ft 289 kts 273°
2026-04-28 23:24 50.11402 -115.60186 22542 ft 280 kts 270°
2026-04-28 23:24 50.11352 -115.63194 22638 ft 272 kts 270°
2026-04-28 23:24 50.11289 -115.66037 23006 ft 254 kts 269°
2026-04-28 23:24 50.11146 -115.68780 21906 ft 259 kts 259°
2026-04-28 23:25 50.10165 -115.70833 18717 ft 157 kts 220°
2026-04-28 23:25 50.09169 -115.71798 18146 ft 181 kts 218°
2026-04-28 23:25 50.08872 -115.72072 18039 ft 185 kts 211°
2026-04-28 23:25 50.08231 -115.72487 17743 ft 187 kts 210°
2026-04-28 23:26 50.07349 -115.73919 17225 ft 197 kts 260°
2026-04-28 23:26 50.07558 -115.75948 17246 ft 196 kts 308°
2026-04-28 23:26 50.08704 -115.77029 17335 ft 199 kts 347°
2026-04-28 23:26 50.10023 -115.77615 17488 ft 197 kts 336°
2026-04-28 23:27 50.11250 -115.78512 17804 ft 191 kts 332°
2026-04-28 23:27 50.12410 -115.79535 18174 ft 193 kts 328°
2026-04-28 23:27 50.13540 -115.80731 18537 ft 199 kts 324°
2026-04-28 23:27 50.14610 -115.82103 18863 ft 204 kts 319°
2026-04-28 23:28 50.15636 -115.83663 19194 ft 207 kts 316°
2026-04-28 23:28 50.16592 -115.85360 19531 ft 209 kts 311°
2026-04-28 23:28 50.17460 -115.87194 19874 ft 211 kts 308°
2026-04-28 23:28 50.18228 -115.89157 20222 ft 212 kts 304°
2026-04-28 23:29 50.18924 -115.91189 20572 ft 213 kts 301°
2026-04-28 23:29 50.19514 -115.93303 20930 ft 213 kts 296°
2026-04-28 23:29 50.19999 -115.95485 21298 ft 213 kts 292°
2026-04-28 23:29 50.20393 -115.97709 21666 ft 212 kts 290°
2026-04-28 23:30 50.20746 -115.99949 22037 ft 210 kts 290°
2026-04-28 23:30 50.21083 -116.02126 22430 ft 208 kts 290°
2026-04-28 23:30 50.21432 -116.04311 22805 ft 207 kts 290°
2026-04-28 23:30 50.21787 -116.06480 23182 ft 206 kts 291°
2026-04-28 23:31 50.22142 -116.08638 23575 ft 204 kts 291°
2026-04-28 23:31 50.22495 -116.10776 23912 ft 203 kts 291°
2026-04-28 23:31 50.22855 -116.12938 24066 ft 210 kts 291°
2026-04-28 23:31 50.23230 -116.15209 24090 ft 221 kts 290°
2026-04-28 23:32 50.23618 -116.17579 24137 ft 229 kts 285°
2026-04-28 23:32 50.24023 -116.20027 24160 ft 237 kts 291°
2026-04-28 23:32 50.24486 -116.22544 24161 ft 245 kts 291°
2026-04-28 23:32 50.24928 -116.25146 24164 ft 251 kts 289°
2026-04-28 23:33 50.25350 -116.27822 24177 ft 256 kts 288°
2026-04-28 23:33 50.25775 -116.30553 24179 ft 261 kts 288°
2026-04-28 23:33 50.26208 -116.33282 24162 ft 264 kts 288°
2026-04-28 23:33 50.26656 -116.36071 24172 ft 265 kts 289°
2026-04-28 23:34 50.27113 -116.38879 24155 ft 267 kts 289°
2026-04-28 23:34 50.27565 -116.41698 24174 ft 268 kts 288°
2026-04-28 23:34 50.28022 -116.44531 24171 ft 269 kts 288°
2026-04-28 23:34 50.28478 -116.47375 24178 ft 270 kts 288°
2026-04-28 23:35 50.28937 -116.50226 24181 ft 271 kts 288°
2026-04-28 23:35 50.29397 -116.53092 24162 ft 272 kts 288°
2026-04-28 23:35 50.29860 -116.55962 24153 ft 273 kts 288°
2026-04-28 23:35 50.30321 -116.58849 24105 ft 275 kts 288°
2026-04-28 23:36 50.30788 -116.61758 24055 ft 276 kts 288°
2026-04-28 23:36 50.31254 -116.64682 24027 ft 278 kts 288°
2026-04-28 23:36 50.31723 -116.67624 23990 ft 279 kts 288°
2026-04-28 23:36 50.32191 -116.70572 23981 ft 279 kts 288°
2026-04-28 23:37 50.32653 -116.73486 23975 ft 280 kts 288°
2026-04-28 23:37 50.33122 -116.76439 23950 ft 280 kts 287°
2026-04-28 23:37 50.33590 -116.79397 23953 ft 280 kts 287°
2026-04-28 23:37 50.34058 -116.82367 23959 ft 280 kts 287°
2026-04-28 23:38 50.34526 -116.85346 23960 ft 281 kts 287°
2026-04-28 23:38 50.34994 -116.88325 23954 ft 282 kts 287°
2026-04-28 23:38 50.35465 -116.91306 23955 ft 282 kts 287°
2026-04-28 23:38 50.35931 -116.94290 23948 ft 282 kts 287°
2026-04-28 23:39 50.36395 -116.97264 23950 ft 281 kts 287°
2026-04-28 23:39 50.36861 -117.00239 23948 ft 281 kts 287°
2026-04-28 23:39 50.37323 -117.03203 23953 ft 280 kts 287°
2026-04-28 23:39 50.37784 -117.06172 23953 ft 280 kts 287°
2026-04-28 23:40 50.38238 -117.09098 23952 ft 280 kts 286°
2026-04-28 23:40 50.38695 -117.12056 23956 ft 279 kts 286°
2026-04-28 23:40 50.39158 -117.15054 23956 ft 279 kts 286°
2026-04-28 23:40 50.39614 -117.18008 23948 ft 279 kts 286°
2026-04-28 23:41 50.40060 -117.20929 23951 ft 278 kts 286°
2026-04-28 23:41 50.40504 -117.23881 23963 ft 278 kts 286°
2026-04-28 23:41 50.40939 -117.26837 23939 ft 278 kts 285°
2026-04-28 23:41 50.41369 -117.29776 23958 ft 276 kts 286°
2026-04-28 23:42 50.41814 -117.32713 23963 ft 276 kts 286°
2026-04-28 23:42 50.42260 -117.35646 23963 ft 277 kts 286°
2026-04-28 23:42 50.42706 -117.38583 23949 ft 277 kts 286°
2026-04-28 23:42 50.43152 -117.41519 23950 ft 276 kts 286°
2026-04-28 23:43 50.43598 -117.44453 23962 ft 276 kts 286°
2026-04-28 23:43 50.44042 -117.47387 23954 ft 276 kts 286°
2026-04-28 23:43 50.44485 -117.50318 23960 ft 276 kts 286°
2026-04-28 23:43 50.44927 -117.53245 23957 ft 276 kts 286°
2026-04-28 23:44 50.45369 -117.56180 23943 ft 276 kts 286°
2026-04-28 23:44 50.45811 -117.59103 23951 ft 275 kts 286°
2026-04-28 23:44 50.46246 -117.62021 23961 ft 275 kts 286°
2026-04-28 23:44 50.46684 -117.64942 23959 ft 275 kts 286°
2026-04-28 23:45 50.47120 -117.67863 23955 ft 275 kts 286°
2026-04-28 23:45 50.47557 -117.70789 23951 ft 275 kts 286°
2026-04-28 23:45 50.47993 -117.73714 23951 ft 275 kts 286°
2026-04-28 23:45 50.48421 -117.76594 23958 ft 275 kts 286°
2026-04-28 23:46 50.48853 -117.79509 23958 ft 275 kts 286°
2026-04-28 23:46 50.49286 -117.82432 23952 ft 275 kts 285°
2026-04-28 23:46 50.49719 -117.85364 23941 ft 274 kts 285°
2026-04-28 23:46 50.50149 -117.88279 23947 ft 273 kts 285°
2026-04-28 23:47 50.50578 -117.91191 23957 ft 273 kts 285°
2026-04-28 23:47 50.51005 -117.94095 23945 ft 273 kts 285°
2026-04-28 23:47 50.51287 -117.96022 23954 ft 273 kts 285°
2026-04-28 23:47 50.51712 -117.98927 23959 ft 273 kts 285°
2026-04-28 23:48 50.52139 -118.01845 23938 ft 274 kts 286°
2026-04-28 23:48 50.52565 -118.04756 23937 ft 273 kts 285°
2026-04-28 23:48 50.53122 -118.08591 23967 ft 271 kts 286°
2026-04-28 23:48 50.53543 -118.11486 23958 ft 272 kts 285°
2026-04-28 23:49 50.53828 -118.13446 23963 ft 272 kts 285°
2026-04-28 23:49 50.54249 -118.16352 23960 ft 273 kts 285°
2026-04-28 23:49 50.54670 -118.19261 23952 ft 273 kts 285°
2026-04-28 23:49 50.55090 -118.22175 23966 ft 273 kts 285°
2026-04-28 23:50 50.55509 -118.25089 23963 ft 274 kts 285°
2026-04-28 23:50 50.55930 -118.28017 23973 ft 275 kts 285°
2026-04-28 23:50 50.56351 -118.30950 23964 ft 275 kts 285°
2026-04-28 23:50 50.56771 -118.33889 23960 ft 276 kts 285°
2026-04-28 23:51 50.57192 -118.36830 23962 ft 276 kts 285°
2026-04-28 23:51 50.57607 -118.39741 23958 ft 276 kts 285°
2026-04-28 23:51 50.58032 -118.42726 23963 ft 275 kts 285°
2026-04-28 23:51 50.58442 -118.45621 23961 ft 275 kts 285°
2026-04-28 23:52 50.58859 -118.48558 23965 ft 275 kts 285°
2026-04-28 23:52 50.59275 -118.51496 23962 ft 275 kts 285°
2026-04-28 23:52 50.59694 -118.54472 23965 ft 275 kts 285°
2026-04-28 23:52 50.60108 -118.57413 23969 ft 275 kts 285°
2026-04-28 23:53 50.60520 -118.60321 23966 ft 275 kts 285°
2026-04-28 23:53 50.60932 -118.63264 23966 ft 276 kts 285°
2026-04-28 23:53 50.61344 -118.66215 23968 ft 276 kts 285°
2026-04-28 23:53 50.61757 -118.69165 23960 ft 276 kts 285°
2026-04-28 23:54 50.62168 -118.72113 23966 ft 275 kts 285°
2026-04-28 23:54 50.62577 -118.75056 23951 ft 275 kts 285°
2026-04-28 23:54 50.62980 -118.78054 23730 ft 283 kts 284°
2026-04-28 23:54 50.63408 -118.81127 23458 ft 290 kts 285°
2026-04-28 23:55 50.63864 -118.84251 23183 ft 296 kts 285°
2026-04-28 23:55 50.64332 -118.87444 22775 ft 303 kts 285°
2026-04-28 23:55 50.64803 -118.90724 22367 ft 310 kts 284°
2026-04-28 23:55 50.65268 -118.94071 21970 ft 315 kts 284°
2026-04-28 23:56 50.65673 -118.97488 21585 ft 319 kts 282°
2026-04-28 23:56 50.66061 -119.00952 21203 ft 321 kts 282°
2026-04-28 23:56 50.66453 -119.04353 20829 ft 311 kts 282°
2026-04-28 23:56 50.66843 -119.07666 20441 ft 304 kts 283°
2026-04-28 23:57 50.67231 -119.10911 20040 ft 299 kts 282°
2026-04-28 23:57 50.67613 -119.14108 19639 ft 295 kts 282°
2026-04-28 23:57 50.67991 -119.17261 19232 ft 291 kts 282°
2026-04-28 23:57 50.68351 -119.20388 18847 ft 287 kts 280°
2026-04-28 23:58 50.68697 -119.23472 18463 ft 284 kts 282°
2026-04-28 23:58 50.69082 -119.26481 18032 ft 283 kts 283°
2026-04-28 23:58 50.69470 -119.29513 17621 ft 282 kts 282°
2026-04-28 23:58 50.69827 -119.32541 17205 ft 280 kts 282°
2026-04-28 23:59 50.70182 -119.35566 16790 ft 279 kts 282°
2026-04-28 23:59 50.70523 -119.38564 16450 ft 276 kts 281°
2026-04-28 23:59 50.70853 -119.41541 16129 ft 274 kts 281°
2026-04-28 23:59 50.71183 -119.44473 15875 ft 270 kts 281°
2026-04-29 00:00 50.71519 -119.47369 15621 ft 267 kts 282°
2026-04-29 00:00 50.71856 -119.50241 15367 ft 265 kts 282°
2026-04-29 00:00 50.72187 -119.53095 15117 ft 263 kts 282°
2026-04-29 00:00 50.72516 -119.55933 14867 ft 262 kts 282°
2026-04-29 00:01 50.72844 -119.58767 14622 ft 262 kts 282°
2026-04-29 00:01 50.73168 -119.61592 14385 ft 261 kts 282°
2026-04-29 00:01 50.73492 -119.64414 14142 ft 261 kts 282°
2026-04-29 00:01 50.73816 -119.67239 13897 ft 262 kts 282°
2026-04-29 00:02 50.74134 -119.70032 13627 ft 262 kts 282°
2026-04-29 00:02 50.74454 -119.72847 13360 ft 262 kts 282°
2026-04-29 00:02 50.74781 -119.75731 13085 ft 262 kts 282°
2026-04-29 00:02 50.75098 -119.78519 12823 ft 262 kts 282°
2026-04-29 00:03 50.75418 -119.81349 12553 ft 261 kts 281°
2026-04-29 00:03 50.75736 -119.84170 12279 ft 261 kts 282°
2026-04-29 00:03 50.76052 -119.86984 12034 ft 259 kts 282°
2026-04-29 00:03 50.76368 -119.89787 11783 ft 259 kts 281°
2026-04-29 00:04 50.76684 -119.92579 11545 ft 259 kts 281°
2026-04-29 00:04 50.77007 -119.95384 11304 ft 259 kts 282°
2026-04-29 00:04 50.77329 -119.98182 11036 ft 258 kts 281°
2026-04-29 00:04 50.77642 -120.00968 10760 ft 257 kts 281°
2026-04-29 00:05 50.77954 -120.03749 10507 ft 256 kts 281°
2026-04-29 00:05 50.78260 -120.06515 10263 ft 255 kts 281°
2026-04-29 00:05 50.78568 -120.09266 10035 ft 254 kts 281°
2026-04-29 00:05 50.78868 -120.12017 9805 ft 253 kts 281°
2026-04-29 00:06 50.79170 -120.14753 9570 ft 253 kts 281°
2026-04-29 00:06 50.79472 -120.17489 9324 ft 253 kts 281°
2026-04-29 00:06 50.79771 -120.20228 9153 ft 251 kts 281°
2026-04-29 00:06 50.80062 -120.22881 9068 ft 245 kts 281°
2026-04-29 00:07 50.80351 -120.25535 9029 ft 239 kts 281°
2026-04-29 00:07 50.80624 -120.28062 8980 ft 235 kts 281°
2026-04-29 00:07 50.80902 -120.30616 8865 ft 236 kts 281°
2026-04-29 00:07 50.81179 -120.33183 8713 ft 236 kts 281°
2026-04-29 00:08 50.81454 -120.35730 8617 ft 233 kts 281°
2026-04-29 00:08 50.81727 -120.38249 8553 ft 232 kts 281°
2026-04-29 00:08 50.81996 -120.40748 8490 ft 229 kts 281°
2026-04-29 00:08 50.82250 -120.43223 8474 ft 226 kts 281°
2026-04-29 00:09 50.82496 -120.45667 8447 ft 224 kts 281°
2026-04-29 00:09 50.82745 -120.48092 8420 ft 223 kts 281°
2026-04-29 00:09 50.83002 -120.50508 8391 ft 222 kts 281°
2026-04-29 00:09 50.83259 -120.52911 8378 ft 222 kts 281°
2026-04-29 00:10 50.83518 -120.55317 8326 ft 221 kts 281°
2026-04-29 00:10 50.83773 -120.57723 8269 ft 222 kts 281°
2026-04-29 00:10 50.84033 -120.60136 8237 ft 223 kts 281°
2026-04-29 00:10 50.84288 -120.62526 8193 ft 224 kts 281°
2026-04-29 00:11 50.84546 -120.64960 8133 ft 225 kts 280°
2026-04-29 00:11 50.84801 -120.67402 8090 ft 225 kts 280°
2026-04-29 00:11 50.85307 -120.72297 8042 ft 225 kts 281°
2026-04-29 00:12 50.85549 -120.74744 8031 ft 225 kts 281°
2026-04-29 00:12 50.85800 -120.77193 8023 ft 224 kts 281°
2026-04-29 00:12 50.86051 -120.79626 8027 ft 223 kts 281°
2026-04-29 00:12 50.86305 -120.82080 7836 ft 230 kts 281°
2026-04-29 00:13 50.86559 -120.84613 7612 ft 236 kts 277°
2026-04-29 00:13 50.86267 -120.87152 7376 ft 247 kts 245°
2026-04-29 00:13 50.85047 -120.89093 7135 ft 256 kts 212°
2026-04-29 00:13 50.83380 -120.90119 6856 ft 256 kts 197°
2026-04-29 00:14 50.81654 -120.90726 6617 ft 253 kts 193°
2026-04-29 00:14 50.79937 -120.91242 6411 ft 248 kts 192°
2026-04-29 00:14 50.78258 -120.91089 6315 ft 243 kts 160°
2026-04-29 00:14 50.76957 -120.89501 6264 ft 237 kts 124°
2026-04-29 00:15 50.76374 -120.87158 6245 ft 225 kts 102°
2026-04-29 00:15 50.76054 -120.84772 6231 ft 219 kts 99°
2026-04-29 00:15 50.75782 -120.82431 6224 ft 214 kts 99°
2026-04-29 00:15 50.75505 -120.80161 6236 ft 207 kts 99°
2026-04-29 00:16 50.75219 -120.77970 6220 ft 201 kts 101°
2026-04-29 00:16 50.74919 -120.75842 6217 ft 196 kts 101°
2026-04-29 00:16 50.74622 -120.73773 6169 ft 192 kts 101°
2026-04-29 00:16 50.74321 -120.71787 6004 ft 183 kts 102°
2026-04-29 00:17 50.74014 -120.69850 5792 ft 180 kts 103°
2026-04-29 00:17 50.73714 -120.67918 5582 ft 179 kts 102°
2026-04-29 00:17 50.73430 -120.66035 5352 ft 179 kts 102°
2026-04-29 00:17 50.73142 -120.64113 5133 ft 180 kts 102°
2026-04-29 00:18 50.72859 -120.62211 4898 ft 178 kts 102°
2026-04-29 00:18 50.72569 -120.60303 4557 ft 178 kts 102°
2026-04-29 00:18 50.72292 -120.58406 4108 ft 175 kts 102°
2026-04-29 00:18 50.72025 -120.56585 3655 ft 167 kts 102°
2026-04-29 00:19 50.71763 -120.54830 3213 ft 161 kts 102°
2026-04-29 00:19 50.71510 -120.53135 2784 ft 156 kts 102°
2026-04-29 00:19 50.71276 -120.51546 2411 ft 142 kts 101°
2026-04-29 00:19 50.71055 -120.50083 2071 ft 134 kts 102°
2026-04-29 00:20 50.70848 -120.48654 1726 ft 133 kts 101°
2026-04-29 00:20 50.70652 -120.47253 1331 ft 130 kts 99°
2026-04-29 00:20 50.70453 -120.45893 1148 ft 120 kts 99°
2026-04-29 00:20 50.70278 -120.44706 1132 ft 104 kts 98°
2026-04-29 00:21 50.70136 -120.43752 1134 ft 58 kts 102°
2026-04-29 00:21 50.70081 -120.43370 1131 ft 22 kts 103°
2026-04-29 00:21 50.70103 -120.43196 1134 ft 14 kts 19°
2026-04-29 00:21 50.70179 -120.43215 1131 ft 10 kts 328°
2026-04-29 00:22 50.70227 -120.43268 1131 ft 8 kts 323°
2026-04-29 00:22 50.70260 -120.43366 1135 ft 13 kts 283°
2026-04-29 00:22 50.70280 -120.43497 1131 ft 12 kts 283°
2026-04-29 00:22 50.70298 -120.43622 1135 ft 12 kts 283°
2026-04-29 00:23 50.70317 -120.43750 1134 ft 12 kts 283°
2026-04-29 00:23 50.70337 -120.43881 1132 ft 12 kts 282°
2026-04-29 00:23 50.70357 -120.44012 1132 ft 12 kts 284°
2026-04-29 00:23 50.70375 -120.44135 1133 ft 9 kts 284°
2026-04-29 00:24 50.70398 -120.44152 1131 ft 3 kts 37°
2026-04-29 00:24 50.70413 -120.44126 1132 ft 4 kts 53°
2026-04-29 00:24 50.70433 -120.44120 1133 ft 3 kts 351°
2026-04-29 00:24 50.70454 -120.44136 1134 ft 2 kts 330°
2026-04-29 00:25 50.70465 -120.44145 1131 ft 0 kts 331°
2026-04-29 00:25 50.70468 -120.44149 1131 ft 0 kts 331°